Location: Caltech
(34.1382°N, 118.1253°W)
Time: 16:21:48
(UTC-08:00)

OPAL - Visible Passes

Search period start: 25 January 2015 00:00
Search period end: 04 February 2015 00:00
Orbit: 744 x 796 km, 100.2° (Epoch: 24 January)

Date Brightness Start Highest point End Pass type
(mag) Time Alt. Az. Time Alt. Az. Time Alt. Az.
25 Jan 10.4 04:08:52 10° E 04:11:04 13° ENE 04:13:34 10° NE visible
25 Jan 7.5 05:44:18 10° S 05:49:26 69° WSW 05:54:39 10° NNW visible
25 Jan 7.9 17:58:12 10° NNE 18:03:05 43° E 18:07:55 10° S visible
25 Jan 9.9 19:37:59 10° NNW 19:41:41 20° WNW 19:45:11 10° WSW visible
26 Jan 8.3 05:09:14 10° SE 05:14:13 52° ENE 05:19:17 10° N visible
26 Jan 8.6 19:01:45 10° N 19:06:38 43° WNW 19:11:24 10° SW visible
27 Jan 9.7 04:35:09 10° ESE 04:39:08 24° ENE 04:43:17 10° NNE visible
27 Jan 8.1 06:13:03 10° SSW 06:17:50 36° W 06:22:37 10° NNW visible
27 Jan 7.4 18:26:17 10° NNE 18:31:27 83° ESE 18:36:31 10° SSW visible
27 Jan 10.5 20:08:34 10° NW 20:09:43 11° WNW 20:10:32 10° WNW visible
28 Jan 10.5 04:03:25 10° ENE 04:04:12 10° ENE 04:05:20 10° NE visible
28 Jan 7.5 05:37:16 10° SSE 05:42:27 85° WSW 05:47:43 10° NNW visible
28 Jan 8.2 17:51:25 10° NE 17:56:03 35° E 18:00:40 10° SSE visible
28 Jan 9.7 19:30:41 10° NNW 19:34:46 24° WNW 19:38:42 10° WSW visible
29 Jan 8.8 05:02:27 10° SE 05:07:17 42° ENE 05:12:12 10° N visible
29 Jan 8.2 18:54:41 10° N 18:59:41 53° WNW 19:04:35 10° SSW visible
30 Jan 10.0 04:28:42 10° ESE 04:32:14 19° ENE 04:35:57 10° NNE visible
30 Jan 7.9 06:05:51 10° S 06:10:48 45° W 06:15:49 10° NNW visible
30 Jan 7.5 18:19:21 10° NNE 18:24:27 66° ESE 18:29:28 10° S visible
30 Jan 10.3 20:00:22 10° NW 20:02:50 13° WNW 20:05:00 10° W visible
31 Jan 7.7 05:30:19 10° SSE 05:35:29 78° ENE 05:40:45 10° NNW visible
31 Jan 8.4 17:44:42 10° NE 17:48:59 28° E 17:53:19 10° SSE visible
31 Jan 9.3 19:23:27 10° N 19:27:51 29° WNW 19:32:06 10° SW visible
01 Feb 9.1 04:55:44 10° SE 05:00:21 34° ENE 05:05:04 10° N visible
01 Feb 7.8 18:47:38 10° N 18:52:44 66° WNW 18:57:43 10° SSW visible
02 Feb 10.3 04:22:25 10° E 04:25:20 16° ENE 04:28:30 10° NNE visible
02 Feb 7.7 05:58:42 10° S 06:03:48 57° WSW 06:08:57 10° NNW visible
02 Feb 7.6 18:12:27 10° NNE 18:17:26 52° ESE 18:22:20 10° S visible
02 Feb 10.2 19:52:46 10° NNW 19:55:56 16° WNW 19:58:52 10° W visible
03 Feb 8.0 05:23:25 10° SSE 05:28:32 63° ENE 05:33:43 10° N visible
03 Feb 9.0 19:16:16 10° N 19:20:54 35° WNW 19:25:26 10° SW visible
